Location: Dannhausen
(51.8650°N, 10.1026°E)
Time: 01:52:17
(UTC+00:00)

Cosmos 2233 Rocket - Pass Details

Date: 13 August 2020
Orbit: 952 x 992 km, 82.9° (Epoch: 26 September)

Event Time Altitude Azimuth Distance (km) Brightness Sun altitude
Exits shadow 21:45:54 36° 146° (SSE) 1,511 4.5 -20.5°
Maximum altitude 21:48:10 54° 92° (E) 1,196 4.3 -20.6°
Drops below altitude 10° 21:54:18 10° 17° (NNE) 2,765 7.0 -21.0°
Sets 21:56:53 0° 13° (NNE) 3,715 7.9 -21.2°
